Terminal Aerodrome Forecast
Issued by NWS

Home | Current Version | Previous Version | Text Only | Print | Product List | Glossary On
Versions: 1 2 3 4 5 6 7 8 9 10 11 12 13 14 15 16 17 18 19 20 21 22 23 24 25
000
FTUS41 KBTV 230705 AAA
TAFRUT
TAF AMD
KRUT 230705Z 2307/2406 11015G25KT P6SM BKN018 OVC035
      TEMPO 2307/2311 SCT015 OVC035
     FM231200 12018G35KT P6SM OVC030
     FM232300 10015G35KT P6SM VCSH OVC030
     FM240200 10014G32KT 3SM -SNPL BR OVC020=

USA.gov is the U.S. government's official web portal to all federal, state and local government web resources and services.